This is the latest recevied weather packets stored in our database for station/object W8LMG. If no packets are shown the sender has not sent any weather packets the latest 10 day(s).
| Time | Temp. | Humidity | Pressure | Rain* | Wind** | Luminosity | Snow |
|---|---|---|---|---|---|---|---|
| 1777940744 | 12.78° C | 89% | 1012.9 hPa | 0 mm | - | 0 W/m² | - |
| 1777940443 | 12.78° C | 88% | 1013 hPa | 0 mm | - | 1 W/m² | - |
| 1777940140 | 13.33° C | 86% | 1012.9 hPa | 0 mm | - | 2 W/m² | - |
| 1777939837 | 13.33° C | 85% | 1012.8 hPa | 0 mm | - | 3 W/m² | - |
| 1777939535 | 13.33° C | 84% | 1012.8 hPa | 0 mm | - | 5 W/m² | - |
| 1777939232 | 13.89° C | 84% | 1012.8 hPa | 0 mm | - | 7 W/m² | - |
| 1777938929 | 14.44° C | 82% | 1012.7 hPa | 0 mm | - | 9 W/m² | - |
| 1777938625 | 14.44° C | 80% | 1012.7 hPa | 0 mm | - | 12 W/m² | - |
| 1777938322 | 15° C | 80% | 1012.6 hPa | 0 mm | - | 15 W/m² | - |
| 1777938019 | 15° C | 79% | 1012.6 hPa | 0 mm | - | 18 W/m² | - |
| 1777937714 | 15.56° C | 75% | 1012.6 hPa | 0 mm | - | 20 W/m² | - |
| 1777937412 | 15.56° C | 75% | 1012.7 hPa | 0 mm | - | 25 W/m² | - |
| 1777937109 | 15.56° C | 73% | 1012.6 hPa | 0 mm | - | 31 W/m² | - |
| 1777936806 | 15.56° C | 75% | 1012.5 hPa | 0 mm | - | 38 W/m² | - |
| 1777936502 | 15.56° C | 75% | 1012.6 hPa | 0 mm | - | 42 W/m² | - |
| 1777936199 | 15.56° C | 76% | 1012.7 hPa | 0 mm | - | 49 W/m² | - |
| 1777935895 | 15.56° C | 74% | 1012.6 hPa | 0 mm | - | 50 W/m² | - |
| 1777935594 | 15.56° C | 74% | 1012.6 hPa | 0 mm | - | 41 W/m² | - |
| 1777935291 | 16.11° C | 75% | 1012.8 hPa | 0 mm | - | 40 W/m² | - |
| 1777934988 | 16.11° C | 73% | 1012.8 hPa | 0 mm | - | 64 W/m² | - |
| 1777934684 | 16.67° C | 71% | 1012.8 hPa | 0 mm | - | 69 W/m² | - |
| 1777934381 | 17.22° C | 71% | 1013 hPa | 0 mm | - | 120 W/m² | - |
| 1777934077 | 16.67° C | 72% | 1012.8 hPa | 0 mm | - | 132 W/m² | - |
| 1777933773 | 16.67° C | 73% | 1012.9 hPa | 0 mm | - | 145 W/m² | - |
| 1777933471 | 17.22° C | 72% | 1012.8 hPa | 0 mm | - | 153 W/m² | - |
* Rain latest hour (hover to see other rain measurements)
** Current wind speed in m/s (hover to see current wind gust speed)